Regional Weather Roundup
Issued by NWS Upton, NY

Current Version | Previous Version | Text Only | Print | Product List | Glossary On
Versions: 1 2 3 4 5 6 7 8 9 10 11 12 13 14 15 16 17 18 19 20 21 22 23 24 25 26 27 28 29 30 31 32 33 34 35 36 37 38 39 40 41 42 43 44 45 46 47 48 49 50
000 ASUS41 KOKX 270305 RWROKX REGIONAL WEATHER ROUNDUP NATIONAL WEATHER SERVICE NEW YORK NY 1000 PM EST FRI DEC 26 2014 NOTE: "FAIR" INDICATES FEW OR NO CLOUDS BELOW 12,000 FEET WITH NO SIGNIFICANT WEATHER AND/OR OBSTRUCTIONS TO VISIBILITY. NYZ071-072-176-178-NJZ106-104-270400- NEW YORK CITY METRO AREA CITY SKY/WX TMP DP RH WIND PRES REMARKS CENTRAL PARK CLEAR 45 29 53 VRB3 30.25S LAGUARDIA APRT CLEAR 46 29 51 W12 30.22S KENNEDY INTL PTCLDY 43 33 68 W9 30.25R NEWARK/LIBERTY PTCLDY 39 29 67 SW6 30.24S WCI 35 BRNX BOT. GARD N/A N/A N/A N/A W9 30.24R TETERBORO CLEAR 35 30 82 CALM 30.22S $$ NYZ177-179-078>081-270400- LONG ISLAND NEW YORK CITY SKY/WX TMP DP RH WIND PRES REMARKS FARMINGDALE CLEAR 40 30 67 SW7 30.23S ISLIP PTCLDY 37 29 72 W5 30.21S WCI 33 SHIRLEY CLEAR 38 30 73 SW5 30.22F WCI 34 WESTHAMPTON CLEAR 26 22 84 CALM 30.23S MONTAUK POINT N/A 44 33 65 W6 30.22R $$ NYZ052-065-067-270400- HUDSON VALLEY CITY SKY/WX TMP DP RH WIND PRES REMARKS WHITE PLAINS CLEAR 41 28 60 W7 30.20S NEWBURGH NOT AVBL MONTGOMERY CLEAR 27 23 85 CALM 30.20R POUGHKEEPSIE CLEAR 32 26 78 SE6 30.20S WCI 26 ALBANY PTCLDY 28 25 88 CALM 30.19S $$ NJZ001-105-106-008-010-013-015-019>022-104-270400- NEW JERSEY CITY SKY/WX TMP DP RH WIND PRES REMARKS NEWARK/LIBERTY PTCLDY 39 29 67 SW6 30.24S WCI 35 TETERBORO CLEAR 35 30 82 CALM 30.22S CALDWELL CLEAR 37 28 70 CALM 30.24R MORRISTOWN CLEAR 34 30 86 CALM 30.24R SOMERVILLE CLEAR 30 26 85 CALM 30.23S SUSSEX PTCLDY 31 27 85 CALM 30.22S ANDOVER NOT AVBL TRENTON CLEAR 36 27 69 CALM 30.25S MILLVILLE CLEAR 32 28 85 CALM 30.28S ATLANTIC CITY CLEAR 33 28 81 CALM 30.28S WRIGHTSTOWN CLEAR 37 32 81 W3 30.24S TOMS RIVER CLEAR 28 27 93 CALM 30.26F BELMAR CLEAR 37 27 65 W5 30.24F WCI 34 $$ PAZ047>061-062-071-270400- EASTERN PENNSYLVANIA CITY SKY/WX TMP DP RH WIND PRES REMARKS PHILADELPHIA PTCLDY 40 31 70 SW7 30.27F ALLENTOWN CLEAR 34 28 79 CALM 30.24S SCRANTON PTCLDY 36 27 69 W8 30.20R WCI 30 $$ CTZ002-004>006-009-010-012-RIZ004-006-007-MAZ004-011-015-270400- SOUTHERN NEW ENGLAND IN CT CITY SKY/WX TMP DP RH WIND PRES REMARKS BRADLEY INTL PTCLDY 32 26 78 CALM 30.18S HARTFORD CLEAR 31 28 89 S3 30.20S DANBURY CLEAR 28 23 81 CALM 30.22R WTRBRY/OXFORD CLEAR 37 25 60 SW3 30.20R BRIDGEPORT CLEAR 41 37 86 W3 30.21S MERIDEN CLEAR 29 27 92 CALM 30.21R NEW HAVEN CLEAR 44 34 67 CALM 30.20S CHESTER FAIR 39 32 75 W5 30.20R GROTON CLEAR 35 32 88 CALM 30.20S WILLIMANTIC CLEAR 29 26 89 CALM 30.20S IN RI CITY SKY/WX TMP DP RH WIND PRES REMARKS PROVIDENCE CLEAR 35 28 75 CALM 30.18S BLOCK ISLAND CLEAR 45 32 61 W10 30.19S WESTERLY CLEAR 39 32 76 CALM 30.20S IN MA CITY SKY/WX TMP DP RH WIND PRES REMARKS BOSTON PTCLDY 43 29 57 W10 30.16R WORCESTER CLEAR 34 27 75 W9 30.14F WCI 27 WESTFIELD CLEAR 29 25 85 CALM 30.18S PROVINCETOWN CLEAR 43 34 70 W12 30.16S NANTUCKET CLEAR 42 37 82 W9 30.17S $$ ANZ330-335-338-340-345-350-353-355-270400- COASTAL MARINE OBSERVATIONS STATION/POSITION TIME SKY/WX TEMP WIND PRES VSBY WAVE AIR SEA DIR/SP/G HT/PER (UTC) (F) (DEG/KT/KT) (MB) (MI) (FT/S) NY HARB ENTRANCE 0300 45 45 260/ 14/ 16 1024.2 2/12 4S FIRE IS 0300 47 N/A 2/12 20S FIRE ISLAND 0200 47 49 1023.9 2/ 8 23SW MTP 0300 N/A 3/ 5 HUDSON CANYON 0300 49 55 280/ 17/ 21 1024.0 3/ 4 EXECUTION ROCKS 0300 44 42 260/ 8/ 10 N/A WESTERN LI SOUND 0300 45 250/ 8/ 10 N/A 0 CENTRAL LI SOUND 0200 45 44 240/ 10/ 12 N/A 1/ 3 EASTERN LI SOUND NOT AVBL ROBBINS REEF 0200 43 1022.7 $$ >>>>>>>>>>>>>>>>>>>>>>>>>>>> KEY <<<<<<<<<<<<<<<<<<<<<<<<<<< > < > SKY/WX - SKY CONDITION/PRESENT WEATHER < > TMP - TEMPERATURE IN FAHRENHEIT < > DP - DEWPOINT IN FAHRENHEIT < > RH - RELATIVE HUMIDITY IN PERCENT < > WIND - DIRECTION AND SPEED IN MPH < > PRES - MEAN SEA LEVEL PRESSURE IN INCHES OF HG < > WCI - WIND CHILL INDEX < > VSB - VISIBILITY IN MILES < > HX - HEAT INDEX < > TC - TEMPERATURE IN CELSIUS < > VRB - VARIABLE WIND DIRECTION < > < >>>>>>>>>>>>>>>>>>>>>>>>>>>> KEY <<<<<<<<<<<<<<<<<<<<<<<<<<<

USA.gov is the U.S. government's official web portal to all federal, state and local government web resources and services.